"read_dt","SO2 (ppb)","flags","PMT voltage (V)","lamp voltage (V)","lamp intensity (Hz)","internal temp (C)","react chamber temp (C)","sample flow (l/min)","pres (mmHg)","SO2 bkg (ppb)","SO2 coefficient"
2013-10-19 00:00:00,1029E-4,5C000000,-0724,0964,10886,029.8,045.4,0.388,735.5,01.18,0.508
2013-10-19 00:01:00,2010E-4,5C000000,-0724,0963,10953,029.8,045.4,0.388,735.5,01.18,0.508
2013-10-19 00:02:00,4816E-5,5C000000,-0724,0964,10898,029.8,045.4,0.388,735.5,01.18,0.508
2013-10-19 00:03:00,1978E-4,5C000000,-0724,0963,10970,029.8,045.4,0.388,735.4,01.18,0.508
2013-10-19 00:04:00,5902E-5,5C000000,-0724,0964,10899,029.8,045.4,0.388,735.5,01.18,0.508
2013-10-19 00:05:00,1356E-4,5C000000,-0724,0964,10878,029.8,045.4,0.388,735.5,01.18,0.508
2013-10-19 00:06:00,5350E-5,5C000000,-0724,0963,10878,029.8,045.4,0.388,735.5,01.18,0.508
2013-10-19 00:07:00,7167E-5,5C000000,-0724,0964,10991,029.8,045.4,0.388,735.5,01.18,0.508
2013-10-19 00:08:00,9524E-5,5C000000,-0724,0963,10814,029.8,045.4,0.388,735.5,01.18,0.508
2013-10-19 00:09:00,8343E-5,5C000000,-0724,0963,10921,029.8,045.4,0.388,735.5,01.18,0.508
2013-10-19 00:10:00,1108E-4,5C000000,-0724,0963,10737,029.8,045.4,0.388,735.4,01.18,0.508
2013-10-19 00:11:00,1089E-4,5C000000,-0724,0963,10807,029.8,045.4,0.388,735.4,01.18,0.508
2013-10-19 00:12:00,1584E-4,5C000000,-0724,0964,10675,029.8,045.4,0.388,735.4,01.18,0.508
2013-10-19 00:13:00,7357E-5,5C000000,-0724,0963,10914,029.8,045.4,0.388,735.4,01.18,0.508
2013-10-19 00:14:00,1293E-4,5C000000,-0724,0963,10975,029.8,045.4,0.388,735.4,01.18,0.508
2013-10-19 00:15:00,1616E-4,5C000000,-0724,0964,10756,029.8,045.4,0.388,735.4,01.18,0.508
2013-10-19 00:16:00,6944E-5,5C000000,-0724,0963,10938,029.8,045.4,0.388,735.4,01.18,0.508
2013-10-19 00:17:00,1062E-4,5C000000,-0724,0964,11017,029.8,045.4,0.388,735.4,01.18,0.508
2013-10-19 00:18:00,6605E-5,5C000000,-0724,0963,10814,029.8,045.4,0.388,735.4,01.18,0.508
2013-10-19 00:19:00,1187E-4,5C000000,-0724,0963,10742,029.8,045.4,0.388,735.4,01.18,0.508
2013-10-19 00:20:00,1033E-4,5C000000,-0724,0964,10739,029.8,045.4,0.388,735.4,01.18,0.508
2013-10-19 00:21:00,1487E-4,5C000000,-0724,0963,10898,029.8,045.4,0.388,735.4,01.18,0.508
2013-10-19 00:22:00,8535E-5,5C000000,-0724,0963,10919,029.7,045.4,0.388,735.4,01.18,0.508
2013-10-19 00:23:00,1167E-4,5C000000,-0724,0963,10967,029.7,045.4,0.388,735.3,01.18,0.508
2013-10-19 00:24:00,1401E-4,5C000000,-0724,0963,10789,029.6,045.4,0.388,735.4,01.18,0.508
2013-10-19 00:25:00,6351E-5,5C000000,-0724,0963,11008,029.5,045.4,0.388,735.3,01.18,0.508
2013-10-19 00:26:00,5009E-5,5C000000,-0724,0962,10845,029.4,045.4,0.388,735.4,01.18,0.508
2013-10-19 00:27:00,1707E-4,5C000000,-0724,0962,10957,029.3,045.4,0.388,735.3,01.18,0.508
2013-10-19 00:28:00,1381E-4,5C000000,-0724,0962,10861,029.3,045.4,0.388,735.4,01.18,0.508
2013-10-19 00:29:00,1353E-4,5C000000,-0724,0961,10820,029.2,045.4,0.389,735.4,01.18,0.508
2013-10-19 00:30:00,1389E-4,5C000000,-0724,0962,10824,029.2,045.4,0.388,735.4,01.18,0.508
2013-10-19 00:31:00,1053E-4,5C000000,-0724,0961,10759,029.2,045.4,0.389,735.4,01.18,0.508
2013-10-19 00:32:00,1262E-4,5C000000,-0724,0961,10853,029.1,045.4,0.389,735.4,01.18,0.508
2013-10-19 00:33:00,7613E-5,5C000000,-0724,0961,11075,029.1,045.4,0.388,735.4,01.18,0.508
2013-10-19 00:34:00,1086E-4,5C000000,-0724,0962,10943,029.1,045.4,0.389,735.3,01.18,0.508
2013-10-19 00:35:00,1226E-4,5C000000,-0724,0961,10892,029.1,045.4,0.389,735.3,01.18,0.508
2013-10-19 00:36:00,7093E-5,5C000000,-0724,0961,11103,029.1,045.4,0.389,735.3,01.18,0.508
2013-10-19 00:37:00,1034E-4,5C000000,-0724,0961,10876,029.1,045.4,0.389,735.2,01.18,0.508
2013-10-19 00:38:00,1489E-4,5C000000,-0724,0961,10778,029.2,045.4,0.389,735.2,01.18,0.508
2013-10-19 00:39:00,1725E-4,5C000000,-0724,0960,10857,029.2,045.4,0.389,735.2,01.18,0.508
2013-10-19 00:40:00,2399E-7,5C000000,-0724,0961,10929,029.2,045.4,0.389,735.2,01.18,0.508
2013-10-19 00:41:00,1361E-4,5C000000,-0724,0962,10940,029.2,045.4,0.389,735.2,01.18,0.508
2013-10-19 00:42:00,2540E-5,5C000000,-0724,0963,10775,029.2,045.4,0.389,735.2,01.18,0.508
2013-10-19 00:43:00,1028E-4,5C000000,-0724,0962,10787,029.3,045.4,0.389,735.3,01.18,0.508
2013-10-19 00:44:00,9779E-5,5C000000,-0724,0962,10946,029.3,045.4,0.389,735.2,01.18,0.508
2013-10-19 00:45:00,1330E-4,5C000000,-0724,0962,10967,029.3,045.4,0.389,735.2,01.18,0.508
2013-10-19 00:46:00,7713E-5,5C000000,-0724,0963,10919,029.3,045.4,0.389,735.2,01.18,0.508
2013-10-19 00:47:00,9926E-5,5C000000,-0724,0963,10779,029.3,045.4,0.389,735.2,01.18,0.508
2013-10-19 00:48:00,1038E-4,5C000000,-0724,0962,10979,029.3,045.4,0.389,735.2,01.18,0.508
2013-10-19 00:49:00,1946E-5,5C000000,-0724,0962,10833,029.3,045.4,0.389,735.2,01.18,0.508
2013-10-19 00:50:00,6976E-5,5C000000,-0724,0963,10966,029.4,045.4,0.389,735.2,01.18,0.508
2013-10-19 00:51:00,6210E-5,5C000000,-0724,0962,10765,029.4,045.4,0.389,735.2,01.18,0.508
2013-10-19 00:52:00,1029E-4,5C000000,-0724,0962,10903,029.4,045.4,0.388,735.2,01.18,0.508
2013-10-19 00:53:00,6695E-5,5C000000,-0724,0963,10904,029.4,045.4,0.389,735.2,01.18,0.508
2013-10-19 00:54:00,5101E-5,5C000000,-0724,0962,11026,029.4,045.4,0.389,735.2,01.18,0.508
2013-10-19 00:55:00,1062E-4,5C000000,-0724,0962,10975,029.4,045.4,0.389,735.2,01.18,0.508
2013-10-19 00:56:00,7088E-5,5C000000,-0724,0963,10875,029.4,045.4,0.388,735.2,01.18,0.508
2013-10-19 00:57:00,9689E-5,5C000000,-0724,0963,10942,029.4,045.4,0.389,735.2,01.18,0.508
2013-10-19 00:58:00,9522E-5,5C000000,-0724,0964,10901,029.5,045.4,0.389,735.1,01.18,0.508
2013-10-19 00:59:00,1549E-4,5C000000,-0724,0962,10838,029.5,045.4,0.388,735.1,01.18,0.508
2013-10-19 01:00:00,1331E-4,5C000000,-0724,0963,10977,029.5,045.4,0.389,735.1,01.18,0.508
2013-10-19 01:01:00,9865E-5,5C000000,-0724,0963,10962,029.5,045.4,0.388,735.1,01.18,0.508
2013-10-19 01:02:00,1673E-4,5C000000,-0724,0962,10863,029.5,045.4,0.388,735.1,01.18,0.508
2013-10-19 01:03:00,1093E-4,5C000000,-0724,0962,10825,029.5,045.4,0.389,735.1,01.18,0.508
2013-10-19 01:04:00,1478E-4,5C000000,-0724,0962,10978,029.5,045.4,0.388,735.1,01.18,0.508
2013-10-19 01:05:00,7712E-5,5C000000,-0724,0963,11020,029.5,045.4,0.388,735.1,01.18,0.508
2013-10-19 01:06:00,1242E-4,5C000000,-0724,0963,10772,029.5,045.4,0.389,735.1,01.18,0.508
2013-10-19 01:07:00,1086E-4,5C000000,-0724,0962,10956,029.5,045.4,0.388,735.1,01.18,0.508
2013-10-19 01:08:00,8139E-5,5C000000,-0724,0963,10902,029.6,045.4,0.388,735.1,01.18,0.508
2013-10-19 01:09:00,1416E-4,5C000000,-0724,0962,10933,029.6,045.4,0.389,735.1,01.18,0.508
2013-10-19 01:10:00,5304E-5,5C000000,-0724,0963,10935,029.6,045.4,0.388,735.1,01.18,0.508
2013-10-19 01:11:00,1192E-4,5C000000,-0724,0964,10931,029.6,045.4,0.388,735.1,01.18,0.508
2013-10-19 01:12:00,7980E-5,5C000000,-0724,0964,10928,029.6,045.4,0.388,735.1,01.18,0.508
2013-10-19 01:13:00,1284E-4,5C000000,-0724,0964,10800,029.6,045.4,0.388,735.1,01.18,0.508
2013-10-19 01:14:00,5964E-5,5C000000,-0724,0963,10905,029.6,045.4,0.388,735.2,01.18,0.508
2013-10-19 01:15:00,1317E-4,5C000000,-0724,0964,10948,029.6,045.4,0.388,735.2,01.18,0.508
2013-10-19 01:16:00,8256E-5,5C000000,-0724,0963,10872,029.7,045.4,0.388,735.2,01.18,0.508
2013-10-19 01:17:00,1228E-4,5C000000,-0724,0963,10849,029.7,045.4,0.388,735.2,01.18,0.508
2013-10-19 01:18:00,1204E-4,5C000000,-0724,0963,11038,029.7,045.4,0.388,735.2,01.18,0.508
2013-10-19 01:19:00,1538E-4,5C000000,-0724,0963,10944,029.7,045.4,0.388,735.2,01.18,0.508
2013-10-19 01:20:00,6398E-6,5C000000,-0724,0964,10944,029.7,045.4,0.388,735.2,01.18,0.508
2013-10-19 01:21:00,1291E-4,5C000000,-0724,0964,10900,029.7,045.4,0.388,735.1,01.18,0.508
2013-10-19 01:22:00,1355E-4,5C000000,-0724,0963,10803,029.7,045.4,0.388,735.1,01.18,0.508
2013-10-19 01:23:00,1215E-4,5C000000,-0724,0962,10887,029.7,045.4,0.388,735.1,01.18,0.508
2013-10-19 01:24:00,1709E-4,5C000000,-0724,0963,10822,029.7,045.4,0.388,735.1,01.18,0.508
2013-10-19 01:25:00,1290E-4,5C000000,-0724,0965,10969,029.7,045.4,0.388,735.1,01.18,0.508
2013-10-19 01:26:00,1354E-4,5C000000,-0724,0963,10935,029.7,045.4,0.388,735.1,01.18,0.508
2013-10-19 01:27:00,1381E-4,5C000000,-0724,0963,10917,029.8,045.4,0.387,735.1,01.18,0.508
2013-10-19 01:28:00,1424E-4,5C000000,-0724,0962,10900,029.8,045.4,0.388,735.1,01.18,0.508
2013-10-19 01:29:00,6695E-5,5C000000,-0724,0964,10927,029.8,045.4,0.388,735.1,01.18,0.508
2013-10-19 01:30:00,1855E-4,5C000000,-0724,0963,10849,029.8,045.4,0.388,735.1,01.18,0.508
2013-10-19 01:31:00,1557E-4,5C000000,-0724,0963,10952,029.8,045.4,0.388,735.1,01.18,0.508
2013-10-19 01:32:00,1741E-4,5C000000,-0724,0964,10811,029.8,045.4,0.388,735.1,01.18,0.508
2013-10-19 01:33:00,1432E-4,5C000000,-0724,0963,10932,029.7,045.4,0.388,735.1,01.18,0.508
2013-10-19 01:34:00,1094E-4,5C000000,-0724,0964,11062,029.7,045.4,0.388,735.1,01.18,0.508
2013-10-19 01:35:00,3854E-5,5C000000,-0724,0963,10974,029.6,045.4,0.388,735.1,01.18,0.508
2013-10-19 01:36:00,8876E-5,5C000000,-0724,0963,10879,029.5,045.4,0.388,735.1,01.18,0.508
2013-10-19 01:37:00,1396E-4,5C000000,-0724,0962,10897,029.4,045.4,0.388,735.1,01.18,0.508
2013-10-19 01:38:00,9704E-5,5C000000,-0724,0962,11057,029.3,045.4,0.388,735.1,01.18,0.508
2013-10-19 01:39:00,1360E-4,5C000000,-0724,0963,10960,029.3,045.4,0.388,735.1,01.18,0.508
2013-10-19 01:40:00,5132E-5,5C000000,-0724,0961,10914,029.2,045.4,0.388,735.1,01.18,0.508
2013-10-19 01:41:00,2201E-4,5C000000,-0724,0961,11019,029.1,045.4,0.389,735.1,01.18,0.508
2013-10-19 01:42:00,2561E-4,5C000000,-0724,0961,10808,029.1,045.4,0.389,735.1,01.18,0.508
2013-10-19 01:43:00,1072E-4,5C000000,-0724,0960,10904,029.1,045.4,0.388,735.1,01.18,0.508
2013-10-19 01:44:00,1205E-4,5C000000,-0724,0961,10919,029.1,045.4,0.389,735.0,01.18,0.508
2013-10-19 01:45:00,7067E-5,5C000000,-0724,0961,10864,029.0,045.4,0.389,735.0,01.18,0.508
2013-10-19 01:46:00,1146E-4,5C000000,-0724,0962,10761,029.0,045.4,0.389,735.0,01.18,0.508
2013-10-19 01:47:00,2029E-4,5C000000,-0724,0961,10731,029.0,045.4,0.389,735.0,01.18,0.508
2013-10-19 01:48:00,1192E-5,5C000000,-0724,0961,10996,029.0,045.4,0.389,735.0,01.18,0.508
2013-10-19 01:49:00,4484E-5,5C000000,-0724,0961,10973,028.9,045.4,0.389,735.0,01.18,0.508
2013-10-19 01:50:00,1330E-4,5C000000,-0724,0962,10816,028.9,045.4,0.389,735.0,01.18,0.508
2013-10-19 01:51:00,1026E-5,5C000000,-0724,0960,10859,028.9,045.4,0.389,735.0,01.18,0.508
2013-10-19 01:52:00,5659E-5,5C000000,-0724,0961,10968,028.9,045.4,0.389,735.0,01.18,0.508
2013-10-19 01:53:00,1352E-4,5C000000,-0724,0961,10897,028.9,045.4,0.389,735.0,01.18,0.508
2013-10-19 01:54:00,2917E-5,5C000000,-0724,0962,10965,028.9,045.4,0.390,735.0,01.18,0.508
2013-10-19 01:55:00,1701E-4,5C000000,-0724,0961,10799,028.9,045.4,0.389,735.0,01.18,0.508
2013-10-19 01:56:00,2042E-4,5C000000,-0724,0961,10985,028.9,045.4,0.389,735.0,01.18,0.508
2013-10-19 01:57:00,1067E-4,5C000000,-0724,0961,10832,028.9,045.4,0.389,735.0,01.18,0.508
2013-10-19 01:58:00,3371E-5,5C000000,-0724,0961,10893,028.9,045.4,0.389,735.0,01.18,0.508
2013-10-19 01:59:00,1020E-4,5C000000,-0724,0962,10926,028.9,045.4,0.390,735.0,01.18,0.508
2013-10-19 02:00:00,1718E-4,5C000000,-0724,0961,10915,028.9,045.4,0.389,735.0,01.18,0.508
2013-10-19 02:01:00,1381E-4,5C000000,-0724,0961,10967,028.9,045.4,0.390,735.0,01.18,0.508
2013-10-19 02:02:00,1265E-4,5C000000,-0724,0962,10897,028.8,045.4,0.389,735.0,01.18,0.508
2013-10-19 02:03:00,5985E-5,5C000000,-0724,0960,10911,028.9,045.4,0.389,735.0,01.18,0.508
2013-10-19 02:04:00,1440E-4,5C000000,-0724,0961,10843,028.8,045.4,0.390,735.0,01.18,0.508
2013-10-19 02:05:00,8798E-5,5C000000,-0724,0961,10944,028.8,045.4,0.389,735.0,01.18,0.508
2013-10-19 02:06:00,1171E-4,5C000000,-0724,0961,11091,028.8,045.4,0.390,735.0,01.18,0.508
2013-10-19 02:07:00,1801E-4,5C000000,-0724,0961,10898,028.8,045.4,0.389,735.0,01.18,0.508
2013-10-19 02:08:00,1169E-4,5C000000,-0724,0961,10876,028.8,045.4,0.389,735.0,01.18,0.508
2013-10-19 02:09:00,9479E-5,5C000000,-0724,0961,10808,028.8,045.4,0.390,735.0,01.18,0.508
2013-10-19 02:10:00,1652E-4,5C000000,-0724,0961,10736,028.8,045.4,0.389,735.1,01.18,0.508
2013-10-19 02:11:00,1166E-4,5C000000,-0724,0962,11090,028.8,045.4,0.390,735.1,01.18,0.508
2013-10-19 02:12:00,1338E-4,5C000000,-0724,0961,10887,028.8,045.4,0.389,735.0,01.18,0.508
2013-10-19 02:13:00,8436E-5,5C000000,-0724,0961,10975,028.8,045.4,0.389,735.1,01.18,0.508
2013-10-19 02:14:00,6967E-5,5C000000,-0724,0962,10816,028.7,045.4,0.390,735.1,01.18,0.508
2013-10-19 02:15:00,6027E-5,5C000000,-0724,0961,10937,028.8,045.4,0.389,735.1,01.18,0.508
2013-10-19 02:16:00,1479E-4,5C000000,-0724,0961,10886,028.8,045.4,0.390,735.1,01.18,0.508
2013-10-19 02:17:00,1342E-4,5C000000,-0724,0961,10952,028.8,045.4,0.389,735.0,01.18,0.508
2013-10-19 02:18:00,1455E-4,5C000000,-0724,0961,11052,028.8,045.4,0.390,735.1,01.18,0.508
2013-10-19 02:19:00,4574E-5,5C000000,-0724,0962,10688,028.8,045.4,0.390,735.0,01.18,0.508
2013-10-19 02:20:00,1142E-4,5C000000,-0724,0961,10808,028.8,045.4,0.389,735.0,01.18,0.508
2013-10-19 02:21:00,7625E-5,5C000000,-0724,0963,10929,028.8,045.4,0.390,735.0,01.18,0.508
2013-10-19 02:22:00,1693E-4,5C000000,-0724,0961,10925,028.8,045.4,0.389,735.0,01.18,0.508
2013-10-19 02:23:00,1285E-4,5C000000,-0724,0962,10851,028.8,045.4,0.390,735.0,01.18,0.508
2013-10-19 02:24:00,1022E-4,5C000000,-0724,0961,11017,028.8,045.4,0.390,735.0,01.18,0.508
2013-10-19 02:25:00,1766E-4,5C000000,-0724,0961,10860,028.8,045.4,0.390,735.0,01.18,0.508
2013-10-19 02:26:00,8350E-5,5C000000,-0724,0961,10935,028.8,045.4,0.390,735.0,01.18,0.508
2013-10-19 02:27:00,1138E-4,5C000000,-0724,0961,10989,028.8,045.4,0.389,735.0,01.18,0.508
2013-10-19 02:28:00,1650E-4,5C000000,-0724,0962,10911,028.8,045.4,0.390,735.0,01.18,0.508
2013-10-19 02:29:00,5755E-5,5C000000,-0724,0961,10841,028.8,045.4,0.389,735.0,01.18,0.508
2013-10-19 02:30:00,1893E-4,5C000000,-0724,0960,10896,028.8,045.4,0.390,735.0,01.18,0.508
2013-10-19 02:31:00,1302E-4,5C000000,-0724,0961,10926,028.7,045.4,0.390,735.0,01.18,0.508
2013-10-19 02:32:00,1564E-4,5C000000,-0724,0962,10958,028.7,045.4,0.389,735.0,01.18,0.508
2013-10-19 02:33:00,1516E-4,5C000000,-0724,0959,10830,028.7,045.4,0.390,735.0,01.18,0.508
2013-10-19 02:34:00,9268E-5,5C000000,-0724,0960,10884,028.6,045.4,0.389,735.0,01.18,0.508
2013-10-19 02:35:00,1106E-4,5C000000,-0724,0960,10910,028.7,045.4,0.390,735.0,01.18,0.508
2013-10-19 02:36:00,1556E-4,5C000000,-0724,0960,10850,028.6,045.4,0.389,735.0,01.18,0.508
2013-10-19 02:37:00,1225E-4,5C000000,-0724,0961,10781,028.6,045.4,0.390,735.0,01.18,0.508
2013-10-19 02:38:00,1566E-4,5C000000,-0724,0960,10877,028.6,045.4,0.390,735.0,01.18,0.508
2013-10-19 02:39:00,1038E-4,5C000000,-0724,0959,10961,028.6,045.4,0.390,735.0,01.18,0.508
2013-10-19 02:40:00,1027E-4,5C000000,-0724,0961,10957,028.5,045.4,0.390,735.0,01.18,0.508
2013-10-19 02:41:00,1150E-4,5C000000,-0724,0961,10894,028.5,045.4,0.390,735.0,01.18,0.508
2013-10-19 02:42:00,1100E-4,5C000000,-0724,0961,10756,028.5,045.4,0.390,735.0,01.18,0.508
2013-10-19 02:43:00,8377E-5,5C000000,-0724,0961,10944,028.5,045.4,0.390,735.0,01.18,0.508
2013-10-19 02:44:00,1128E-4,5C000000,-0724,0962,11017,028.5,045.4,0.390,734.9,01.18,0.508
2013-10-19 02:45:00,1200E-4,5C000000,-0724,0960,10901,028.5,045.4,0.390,735.0,01.18,0.508
2013-10-19 02:46:00,1118E-4,5C000000,-0724,0960,10883,028.5,045.4,0.390,734.9,01.18,0.508
2013-10-19 02:47:00,9859E-5,5C000000,-0724,0960,10838,028.4,045.4,0.390,734.9,01.18,0.508
2013-10-19 02:48:00,6404E-5,5C000000,-0724,0961,11001,028.5,045.4,0.390,735.0,01.18,0.508
2013-10-19 02:49:00,1708E-4,5C000000,-0724,0960,10813,028.4,045.4,0.390,735.0,01.18,0.508
2013-10-19 02:50:00,7845E-5,5C000000,-0724,0960,11002,028.5,045.4,0.390,734.9,01.18,0.508
2013-10-19 02:51:00,4646E-5,5C000000,-0724,0961,10875,028.5,045.4,0.390,735.0,01.18,0.508
2013-10-19 02:52:00,1199E-4,5C000000,-0724,0961,10946,028.5,045.4,0.390,735.0,01.18,0.508
2013-10-19 02:53:00,5691E-5,5C000000,-0724,0961,10924,028.6,045.4,0.390,735.0,01.18,0.508
2013-10-19 02:54:00,1592E-5,5C000000,-0724,0961,10853,028.6,045.4,0.390,735.0,01.18,0.508
2013-10-19 02:55:00,2218E-4,5C000000,-0724,0961,10740,028.6,045.4,0.390,735.0,01.18,0.508
2013-10-19 02:56:00,4460E-5,5C000000,-0724,0961,10979,028.6,045.4,0.390,735.0,01.18,0.508
2013-10-19 02:57:00,1896E-4,5C000000,-0724,0961,10882,028.6,045.4,0.390,735.0,01.18,0.508
2013-10-19 02:58:00,1455E-4,5C000000,-0724,0960,10871,028.6,045.4,0.390,735.0,01.18,0.508
2013-10-19 02:59:00,9688E-5,5C000000,-0724,0961,10924,028.6,045.4,0.390,735.0,01.18,0.508
2013-10-19 03:00:00,1417E-4,5C000000,-0724,0960,10957,028.6,045.4,0.390,735.0,01.18,0.508
2013-10-19 03:01:00,1737E-4,5C000000,-0724,0961,10847,028.6,045.4,0.389,735.0,01.18,0.508
2013-10-19 03:02:00,1114E-4,5C000000,-0724,0961,10916,028.6,045.4,0.390,735.0,01.18,0.508
2013-10-19 03:03:00,1554E-4,5C000000,-0724,0961,10969,028.5,045.4,0.390,735.0,01.18,0.508
2013-10-19 03:04:00,5310E-5,5C000000,-0724,0962,10848,028.5,045.4,0.390,735.0,01.18,0.508
2013-10-19 03:05:00,8318E-5,5C000000,-0724,0961,11025,028.5,045.4,0.390,735.0,01.18,0.508
2013-10-19 03:06:00,1726E-5,5C000000,-0724,0961,10724,028.5,045.4,0.390,735.0,01.18,0.508
2013-10-19 03:07:00,1151E-4,5C000000,-0724,0961,10927,028.5,045.4,0.390,734.9,01.18,0.508
2013-10-19 03:08:00,9018E-5,5C000000,-0724,0961,10877,028.5,045.4,0.390,735.0,01.18,0.508
2013-10-19 03:09:00,1040E-4,5C000000,-0724,0962,10975,028.6,045.4,0.390,734.9,01.18,0.508
2013-10-19 03:10:00,1548E-4,5C000000,-0724,0962,10779,028.6,045.4,0.390,734.9,01.18,0.508
2013-10-19 03:11:00,8234E-5,5C000000,-0724,0962,10860,028.6,045.4,0.390,734.9,01.18,0.508
2013-10-19 03:12:00,9222E-5,5C000000,-0724,0961,10843,028.6,045.4,0.390,734.9,01.18,0.508
2013-10-19 03:13:00,1484E-4,5C000000,-0724,0961,10832,028.6,045.4,0.390,735.0,01.18,0.508
2013-10-19 03:14:00,9813E-5,5C000000,-0724,0961,10829,028.6,045.4,0.389,734.9,01.18,0.508
2013-10-19 03:15:00,1012E-4,5C000000,-0724,0961,10908,028.6,045.4,0.390,734.9,01.18,0.508
2013-10-19 03:16:00,1618E-4,5C000000,-0724,0961,10781,028.6,045.4,0.390,734.9,01.18,0.508
2013-10-19 03:17:00,8851E-5,5C000000,-0724,0961,10870,028.6,045.4,0.390,734.9,01.18,0.508
2013-10-19 03:18:00,1298E-4,5C000000,-0724,0961,10876,028.6,045.4,0.390,734.9,01.18,0.508
2013-10-19 03:19:00,1635E-4,5C000000,-0724,0961,10986,028.6,045.4,0.390,734.9,01.18,0.508
2013-10-19 03:20:00,1273E-4,5C000000,-0724,0961,10898,028.6,045.4,0.390,734.9,01.18,0.508
2013-10-19 03:21:00,8985E-5,5C000000,-0724,0961,10845,028.7,045.4,0.390,734.9,01.18,0.508
2013-10-19 03:22:00,7117E-5,5C000000,-0724,0961,10987,028.7,045.4,0.390,734.9,01.18,0.508
2013-10-19 03:23:00,1429E-4,5C000000,-0724,0961,10932,028.7,045.4,0.390,734.9,01.18,0.508
2013-10-19 03:24:00,9914E-5,5C000000,-0724,0961,10857,028.6,045.4,0.390,734.9,01.18,0.508
2013-10-19 03:25:00,2846E-5,5C000000,-0724,0962,11045,028.6,045.4,0.390,734.9,01.18,0.508
2013-10-19 03:26:00,1845E-4,5C000000,-0724,0962,10922,028.6,045.4,0.390,734.9,01.18,0.508
2013-10-19 03:27:00,1743E-4,5C000000,-0724,0963,10978,028.6,045.4,0.390,734.9,01.18,0.508
2013-10-19 03:28:00,1969E-4,5C000000,-0724,0961,10704,028.6,045.4,0.390,734.9,01.18,0.508
2013-10-19 03:29:00,1379E-4,5C000000,-0724,0962,10916,028.6,045.4,0.389,734.9,01.18,0.508
2013-10-19 03:30:00,3413E-5,5C000000,-0724,0960,10948,028.6,045.4,0.390,734.9,01.18,0.508
2013-10-19 03:31:00,1747E-4,5C000000,-0724,0962,10935,028.6,045.4,0.389,734.9,01.18,0.508
2013-10-19 03:32:00,2676E-5,5C000000,-0724,0961,10913,028.5,045.4,0.390,734.9,01.18,0.508
2013-10-19 03:33:00,7224E-5,5C000000,-0724,0961,10894,028.5,045.4,0.389,734.9,01.18,0.508
2013-10-19 03:34:00,7931E-5,5C000000,-0724,0960,10946,028.5,045.4,0.390,734.9,01.18,0.508
2013-10-19 03:35:00,-7388E-7,5C000000,-0724,0959,10877,028.5,045.4,0.389,734.9,01.18,0.508
2013-10-19 03:36:00,6474E-6,5C000000,-0724,0961,11081,028.5,045.4,0.390,734.9,01.18,0.508
2013-10-19 03:37:00,7970E-5,5C000000,-0724,0961,10935,028.5,045.4,0.390,734.9,01.18,0.508
2013-10-19 03:38:00,8577E-5,5C000000,-0724,0961,10748,028.5,045.4,0.390,734.9,01.18,0.508
2013-10-19 03:39:00,1620E-5,5C000000,-0724,0961,10904,028.5,045.4,0.390,734.9,01.18,0.508
2013-10-19 03:40:00,1341E-4,5C000000,-0724,0960,10633,028.5,045.4,0.390,734.9,01.18,0.508
2013-10-19 03:41:00,1081E-4,5C000000,-0724,0960,10659,028.5,045.4,0.390,734.9,01.18,0.508
2013-10-19 03:42:00,1447E-4,5C000000,-0724,0962,10920,028.5,045.4,0.390,734.9,01.18,0.508
2013-10-19 03:43:00,1121E-4,5C000000,-0724,0961,10952,028.5,045.4,0.390,734.9,01.18,0.508
2013-10-19 03:44:00,1592E-4,5C000000,-0724,0961,10941,028.5,045.4,0.390,734.9,01.18,0.508
2013-10-19 03:45:00,8689E-5,5C000000,-0724,0961,10894,028.4,045.4,0.390,734.9,01.18,0.508
2013-10-19 03:46:00,8317E-5,5C000000,-0724,0960,10949,028.4,045.4,0.390,734.9,01.18,0.508
2013-10-19 03:47:00,1146E-4,5C000000,-0724,0961,10982,028.4,045.4,0.390,734.9,01.18,0.508
2013-10-19 03:48:00,2605E-4,5C000000,-0724,0961,10864,028.4,045.4,0.390,734.9,01.18,0.508
2013-10-19 03:49:00,1333E-4,5C000000,-0724,0962,10836,028.4,045.4,0.390,735.0,01.18,0.508
2013-10-19 03:50:00,2171E-4,5C000000,-0724,0961,10891,028.4,045.4,0.390,735.0,01.18,0.508
2013-10-19 03:51:00,9077E-5,5C000000,-0724,0961,10824,028.4,045.4,0.390,734.9,01.18,0.508
2013-10-19 03:52:00,3775E-5,5C000000,-0724,0961,10822,028.3,045.4,0.390,734.9,01.18,0.508
2013-10-19 03:53:00,6313E-5,5C000000,-0724,0960,10927,028.3,045.4,0.390,734.9,01.18,0.508
2013-10-19 03:54:00,1196E-4,5C000000,-0724,0961,10894,028.3,045.4,0.390,734.9,01.18,0.508
2013-10-19 03:55:00,5752E-5,5C000000,-0724,0960,10965,028.3,045.4,0.390,734.9,01.18,0.508
2013-10-19 03:56:00,1180E-4,5C000000,-0724,0960,10862,028.3,045.4,0.390,734.9,01.18,0.508
2013-10-19 03:57:00,1416E-4,5C000000,-0724,0961,10992,028.3,045.3,0.390,734.9,01.18,0.508
2013-10-19 03:58:00,8664E-5,5C000000,-0724,0960,10889,028.2,045.3,0.390,734.9,01.18,0.508
2013-10-19 03:59:00,9305E-5,5C000000,-0724,0961,10791,028.2,045.4,0.390,734.9,01.18,0.508
2013-10-19 04:00:00,1526E-4,5C000000,-0724,0960,10924,028.2,045.4,0.390,734.9,01.18,0.508
2013-10-19 04:01:00,8229E-5,5C000000,-0724,0961,10916,028.2,045.4,0.390,734.9,01.18,0.508
2013-10-19 04:02:00,3647E-5,5C000000,-0724,0961,10699,028.2,045.4,0.390,734.9,01.18,0.508
2013-10-19 04:03:00,1010E-4,5C000000,-0724,0960,10853,028.3,045.4,0.390,734.9,01.18,0.508
2013-10-19 04:04:00,8667E-5,5C000000,-0724,0961,10981,028.3,045.4,0.390,734.8,01.18,0.508
2013-10-19 04:05:00,1064E-4,5C000000,-0724,0961,10973,028.3,045.4,0.390,734.8,01.18,0.508
2013-10-19 04:06:00,8365E-5,5C000000,-0724,0960,10958,028.3,045.4,0.391,734.8,01.18,0.508
2013-10-19 04:07:00,1720E-4,5C000000,-0724,0960,11011,028.3,045.3,0.390,734.8,01.18,0.508
2013-10-19 04:08:00,1178E-4,5C000000,-0724,0960,10931,028.3,045.3,0.391,734.8,01.18,0.508
2013-10-19 04:09:00,1096E-4,5C000000,-0724,0961,10901,028.3,045.4,0.390,734.8,01.18,0.508
2013-10-19 04:10:00,1086E-4,5C000000,-0724,0961,10857,028.3,045.4,0.390,734.8,01.18,0.508
2013-10-19 04:11:00,1359E-4,5C000000,-0724,0960,10983,028.3,045.4,0.390,734.8,01.18,0.508
2013-10-19 04:12:00,1417E-4,5C000000,-0724,0961,10980,028.3,045.4,0.391,734.8,01.18,0.508
2013-10-19 04:13:00,3675E-5,5C000000,-0724,0960,10931,028.3,045.4,0.390,734.8,01.18,0.508
2013-10-19 04:14:00,1241E-4,5C000000,-0724,0960,10810,028.3,045.4,0.390,734.8,01.18,0.508
2013-10-19 04:15:00,1720E-4,5C000000,-0724,0961,10883,028.3,045.4,0.390,734.9,01.18,0.508
2013-10-19 04:16:00,1447E-4,5C000000,-0724,0960,10896,028.3,045.4,0.390,734.9,01.18,0.508
2013-10-19 04:17:00,1282E-4,5C000000,-0724,0961,10990,028.3,045.4,0.390,734.9,01.18,0.508
2013-10-19 04:18:00,8488E-5,5C000000,-0724,0960,10937,028.3,045.4,0.390,734.8,01.18,0.508
2013-10-19 04:19:00,2173E-4,5C000000,-0724,0962,10935,028.3,045.4,0.390,734.8,01.18,0.508
2013-10-19 04:20:00,1168E-4,5C000000,-0724,0960,10980,028.3,045.4,0.390,734.8,01.18,0.508